SCP
0 0 0 0 0 0 0 0 0 0 0 0 0 0 0 0 0 0 0 0 0 0 0 0 0 0 0 0 0 0 0 0 0 0 0 0 0 0 0 0 0 0 0
0 0 0 0 0 0 0 0 0 0 0 0 0 0 0 0 0 0 0 0 0 0 0 0 0 0 0 0 0 0 0 0 0 0 0 0 0 0 0 0 0 0 0
0 0 0 0 0 0 0 0 0 0 0 0 0 0 0 0 0 0 0 0 0 0 0 0 0 0 0 0 0 0 0 0 0 0 0 0 0 0 0 0 0 0 0
0 0 0 0 0 0 0 0 0 0 0 0 0 0 0 0 0 0 0 0 0 0 0 0 0 0 0 0 0 0 0 0 0 0 0 0 0 0 0 0 0 0 0
0 0 0 0 0 0 0 0 0 0 0 0 0 0 0 0 0 0 0 0 0 0 0 0 0 0 0 0 0 0 0 0 0 0 0 0 0 0 0 0 0 0 0
0 0 0 0 0 0 0 0 0 0 0 0 0 0 0 0 0 0 0 0 0 0 0 0 0 0 0 0 0 0 0 0 0 0 0 0 0 0 0 0 0 0 0
0 0 0 0 0 0 0 0 0 0 0 0 0 0 0 0 0 0 0 0 0 0 0 0 0 0 0 0 0 0 0 0 0 0 0 0 0 0 0 0 0 0 0
0 0 0 0 0 0 0 0 0 0 0 0 0 0 0 0 0 0 0 0 0 0 0 0 0 0 0 0 0 0 0 0 0 0 0 0 0 0 0 0 0 0 0
0 0 0 0 0 0 0 0 0 0 0 0 0 0 0 0 0 0 0 0 0 0 0 0 0 0 0 0 0 0 0 0 0 0 0 0 0 0 0 0 0 0 0
0 0 0 0 0 0 0 0 0 0 0 0 0 0 0 0 0 0 0 0 0 0 0 0 0 0 0 0 0 0 0 0 0 0 0 0 0 0 0 0 0 0 0
0 0 0 0 0 0 0 0 0 0 0 0 0 0 0 0 0 0 0 0 0 0 0 0 0 0 0 0 0 0 0 0 0 0 0 0 0 0 0 0 0 0 0
0 0 0 0 0 0 0 0 0 0 0 0 0 0 0 0 0 0 0 0 0 0 0 0 0 0 0 0 0 0 0 0 0 0 0 0 0 0 0 0 0 0 0
0 0 0 0 0 0 0 0 0 0 0 0 0 0 0 0 0 0 0 0 0 0 0 0 0 0 0 0 0 0 0 0 0 0 0 0 0 0 0 0 0 0 0
0 0 0 0 0 0 0 0 0 0 0 0 0 0 0 0 0 0 0 0 0 0 0 0 0 0 0 0 0 0 0 0 0 0 0 0 0 0 0 0 0 0 0
0 0 0 0 0 0 0 0 0 0 0 0 0 0 0 0 0 0 0 0 0 0 0 0 0 0 0 0 0 0 0 0 0 0 0 0 0 0 0 0 0 0 0
0 0 0 0 0 0 0 0 0 0 0 0 0 0 0 0 0 0 0 -0 -0 0 0 0 0 0 0 0 0 0 0 0 0 0 0 0 0 0 0 0 0 0 0
0 0 0 0 0 0 0 0 0 0 0 0 0 0 0 0 0 0 0 -0 -0 0 0 0 0 0 0 0 0 0 0 0 0 0 0 0 0 0 0 0 0 0 0
0 0 0 0 0 0 0 0 0 0 0 0 0 0 0 0 0 0 0 0 0 0 0 0 0 0 0 0 0 0 0 0 0 0 0 0 0 0 0 0 0 0 0
0 0 0 0 0 0 0 0 0 0 0 0 0 0 0 0 0 0 0 0 0 0 0 0 0 0 0 0 0 0 0 0 0 0 0 0 0 0 0 0 0 0 0
0 0 0 0 0 0 0 0 0 0 0 0 0 0 0 0 0 0 0 0 0 0 0 0 0 0 0 0 0 0 0 0 0 0 0 0 0 0 0 0 0 0 0
0 0 0 0 0 0 0 0 0 0 0 0 0 0 0 0 0 0 0 0 0 0 0 0 0 0 0 0 0 0 0 0 0 0 0 0 0 0 0 0 0 0 0
0 0 0 0 0 0 0 0 0 0 0 0 0 0 0 0 0 0 0 0 0 0 0 0 0 0 0 0 0 0 0 0 0 0 0 0 0 0 0 0 0 0 0
0 0 0 0 0 0 0 0 0 0 0 0 0 0 0 0 0 0 0 0 0 0 0 0 0 0 0 0 0 0 0 0 0 0 0 0 0 0 0 0 0 0 0
0 0 0 0 0 0 0 0 0 0 0 0 0 0 0 0 0 0 0 0 0 0 0 0 0 0 0 0 0 0 0 0 0 0 0 0 0 0 0 0 0 0 0
0 0 0 0 0 0 0 0 0 0 0 0 0 0 0 0 0 0 0 0 0 0 0 0 0 0 0 0 0 0 0 0 0 0 0 0 0 0 0 0 0 0 0
0 0 0 0 0 0 0 0 0 0 0 0 0 0 0 0 0 0 0 0 0 0 0 0 0 0 0 0 0 0 0 0 0 0 0 0 0 0 0 0 0 0 0
Wind_Speed
1 2 7 8 9 9 10 10 11 11 11 11 11 11 11 12 12 12 11 11 11 11 10 10 10 10 10 10 10 9 9 9 9 9 10 10 10 10 9 9 8 5 9
4 4 8 9 9 9 10 10 11 11 11 11 11 11 11 12 11 11 11 11 11 10 10 10 10 10 10 9 9 8 8 8 9 9 9 9 9 9 9 9 9 5 8
5 5 6 9 9 9 10 10 11 11 11 11 11 11 11 11 11 11 11 11 11 10 10 9 9 9 9 9 8 8 8 8 9 10 8 4 5 9 9 9 9 9 8
6 5 6 9 10 10 10 10 11 11 11 11 11 11 11 11 11 10 10 10 10 10 10 9 9 8 8 8 8 8 8 9 10 9 5 4 4 8 9 9 9 9 9
6 5 6 10 10 10 10 10 10 10 10 10 11 11 10 10 10 10 10 9 9 9 9 9 8 8 7 8 8 9 9 10 10 8 5 4 3 8 9 9 9 9 9
6 5 6 10 10 10 10 10 10 10 10 10 10 10 10 9 9 9 9 9 9 8 8 8 7 7 8 8 9 9 10 10 8 5 4 4 3 7 9 9 9 8 8
6 4 6 10 10 10 10 10 10 10 9 9 9 9 9 9 9 9 8 8 8 8 8 7 7 7 8 8 9 9 10 10 6 5 4 3 4 7 8 9 9 8 8
6 5 5 9 10 9 10 10 9 9 9 9 9 9 9 9 9 8 8 7 7 7 7 7 7 7 8 9 10 10 10 9 7 6 4 3 6 8 8 9 9 8 8
6 5 3 4 6 8 9 8 8 9 8 8 9 9 8 8 8 7 7 6 7 6 6 7 7 8 8 9 10 11 11 10 5 3 4 3 6 8 9 9 8 8 8
4 4 4 3 3 3 4 7 8 7 7 7 7 8 7 7 7 6 5 5 5 5 5 6 7 7 7 8 9 10 10 8 4 4 2 3 8 8 9 9 8 8 8
4 3 3 3 3 3 3 5 5 5 5 5 5 6 5 2 2 2 3 4 4 4 4 5 5 6 7 8 9 9 7 3 3 2 2 6 8 9 9 9 9 9 8
5 5 4 4 3 3 3 2 1 2 2 2 2 2 2 1 1 2 2 3 3 3 3 4 4 5 4 3 6 7 3 4 3 2 3 7 8 8 9 9 9 9 9
4 5 5 5 4 3 2 2 1 1 1 1 2 2 2 1 1 1 1 1 1 2 2 3 3 2 2 2 3 3 3 3 2 2 3 7 7 8 8 9 9 9 9
4 5 5 5 4 4 3 2 2 1 1 1 2 3 2 2 1 1 1 0 1 1 2 2 2 3 3 4 4 4 4 3 2 2 3 7 7 8 8 9 9 8 8
3 3 5 5 5 4 3 2 2 2 2 2 2 2 3 2 2 2 1 1 1 1 2 2 3 3 4 4 5 5 4 3 3 3 3 7 8 8 8 8 8 8 8
3 3 4 5 5 4 3 3 2 2 2 2 2 2 2 2 3 3 2 1 1 2 2 2 3 3 3 4 4 4 4 3 3 3 3 4 8 8 8 8 8 9 8
4 3 4 4 4 5 4 3 2 2 2 2 2 2 3 3 3 3 2 2 2 2 3 3 4 3 4 4 4 4 3 3 3 3 3 3 3 7 8 8 8 9 8
3 3 3 3 4 5 4 3 2 2 2 2 2 2 2 3 4 4 3 2 2 2 3 3 3 3 3 3 3 3 3 2 3 3 3 3 3 3 5 8 8 8 8
4 3 2 2 4 4 4 3 3 2 2 2 2 2 2 3 4 4 3 2 3 3 2 3 3 3 3 3 3 3 3 2 2 3 3 3 3 3 3 6 7 7 7
4 3 3 3 3 3 3 3 2 2 1 2 2 2 2 2 4 4 3 3 3 3 3 3 3 3 2 2 3 3 2 2 3 3 2 2 2 3 3 4 3 5 7
4 4 3 3 3 3 3 2 2 2 1 1 1 2 2 3 3 3 3 3 3 3 3 4 3 4 2 2 3 3 3 4 3 2 2 3 3 3 3 4 3 3 3
4 4 3 3 3 4 3 3 2 2 2 1 1 2 2 3 3 3 4 3 3 3 3 3 3 2 1 1 3 3 2 3 3 3 2 2 2 2 3 3 3 3 3
4 5 4 4 4 4 4 3 2 2 2 1 1 1 1 2 3 3 4 3 3 3 3 3 3 4 2 1 1 3 3 1 1 3 3 2 2 2 2 2 3 3 3
5 4 4 4 4 4 5 4 5 3 2 2 2 1 1 2 3 3 4 4 3 2 3 3 3 2 3 2 0 1 2 4 3 0 2 2 2 2 1 2 2 2 2
4 4 4 4 4 4 5 5 5 3 2 1 1 2 1 1 2 3 3 3 3 2 3 3 3 2 2 2 2 1 1 1 2 3 1 1 2 2 1 1 1 1 1
3 3 4 5 4 4 4 4 5 5 4 4 3 2 1 1 1 2 3 3 3 2 3 3 3 3 2 2 2 2 2 2 2 2 2 1 0 1 1 1 1 0 1
Wind_Direction
169 164 120 114 111 109 108 109 108 106 103 100 97 95 93 92 92 92 90 89 86 84 82 80 78 76 77 80 80 79 80 82 82 86 86 82 83 85 84 82 82 83 90
156 147 124 115 111 109 108 108 109 107 104 102 99 97 96 94 93 93 92 90 89 88 87 83 80 78 75 75 74 72 74 79 81 83 84 82 83 83 83 82 86 88 89
130 127 122 119 116 113 110 109 108 109 107 104 102 100 99 96 94 93 91 89 89 89 88 85 81 78 75 71 68 68 72 80 84 82 78 68 80 83 81 81 82 86 88
128 127 124 123 120 116 111 109 110 111 108 106 105 104 102 100 99 97 93 91 90 88 86 83 82 80 75 69 65 68 74 81 83 79 62 56 70 85 83 82 81 83 85
120 123 128 126 123 119 114 112 114 113 111 110 109 107 105 103 103 101 98 94 92 90 87 82 79 79 74 69 69 72 77 80 78 70 58 53 57 84 86 83 80 82 82
120 122 131 127 125 122 119 116 116 116 114 114 112 110 108 106 104 102 100 96 92 89 87 84 78 74 74 73 72 77 83 80 74 64 56 56 59 82 85 82 79 80 79
126 127 131 128 126 125 124 123 122 121 119 119 117 114 110 106 105 104 101 96 94 92 88 85 79 77 77 74 74 83 85 82 74 65 54 54 70 82 83 80 78 77 78
137 135 131 132 129 128 128 129 128 125 124 123 121 118 115 112 110 107 103 99 97 96 91 84 81 82 77 75 77 83 81 79 78 68 52 49 78 82 82 79 78 77 75
138 134 130 132 132 134 133 134 132 130 129 128 127 124 121 120 117 114 111 107 104 100 91 82 80 78 74 75 79 82 82 75 67 57 61 54 81 84 82 80 77 75 74
135 138 140 135 132 130 137 143 142 139 136 136 135 130 125 123 123 126 125 123 116 106 95 85 79 75 72 72 75 82 80 70 62 53 42 69 79 84 84 82 78 76 74
150 159 156 153 151 149 154 155 148 150 148 148 145 141 127 109 117 134 149 144 128 112 101 92 79 70 65 66 73 78 72 62 66 54 48 75 79 84 84 82 79 78 77
168 178 178 173 174 173 166 141 144 155 151 148 152 149 129 132 152 152 158 156 133 99 89 88 73 62 55 57 66 70 64 62 56 53 65 73 77 86 86 82 78 76 77
176 171 178 178 177 174 161 152 156 143 152 166 172 159 146 136 129 116 91 68 54 70 58 49 47 54 61 68 73 73 70 63 47 37 59 74 78 89 89 86 81 79 78
162 178 174 169 173 175 162 158 156 151 157 174 168 154 155 148 139 137 123 92 71 75 76 61 65 62 69 78 84 84 78 69 55 39 56 75 81 88 88 87 84 82 80
162 168 170 169 173 171 160 167 155 164 172 173 156 159 157 147 149 144 127 103 94 92 98 94 86 78 72 79 87 90 88 80 65 48 43 66 76 84 86 86 84 82 81
174 173 170 167 174 165 160 167 164 168 163 148 144 146 144 141 138 127 114 98 95 108 112 106 101 91 82 80 78 82 87 83 71 59 43 51 64 72 81 82 82 84 83
178 175 175 170 166 165 163 168 159 154 140 128 132 126 123 121 128 125 120 112 110 110 102 92 86 82 85 79 72 74 79 75 77 67 54 43 47 60 71 76 77 77 79
168 176 184 166 154 158 156 152 144 137 132 129 123 111 116 123 122 118 118 119 116 107 101 98 93 85 77 77 70 59 63 66 74 67 62 57 48 43 53 65 69 72 72
165 165 158 135 144 153 149 139 136 127 128 132 119 110 106 111 118 118 120 121 116 105 102 110 98 103 97 84 77 61 48 57 63 76 70 64 58 48 42 53 57 61 65
156 150 138 127 132 134 125 110 101 96 107 115 114 117 125 117 118 120 122 120 117 108 95 98 101 91 100 102 90 66 40 40 54 61 67 66 59 56 51 45 37 41 50
151 146 146 138 141 136 132 139 135 137 136 118 139 144 147 131 125 123 124 117 116 118 124 122 113 97 89 101 86 52 27 37 48 42 48 61 59 55 54 48 44 35 29
168 165 158 154 155 157 158 162 159 149 144 140 129 116 137 137 139 134 129 131 127 115 112 118 120 112 118 122 119 102 37 12 12 25 35 64 59 55 60 59 48 45 32
178 179 173 169 163 166 155 127 104 80 67 62 65 95 121 141 137 134 134 133 133 134 142 147 144 142 153 187 151 137 137 183 332 357 18 39 44 49 52 55 55 45 41
192 187 177 170 167 164 153 143 146 151 163 190 179 166 136 131 133 142 144 145 140 140 149 164 158 154 146 171 233 154 159 155 149 70 354 7 31 45 46 68 55 42 38
186 182 179 165 163 165 164 162 158 160 175 161 139 140 136 125 141 148 148 146 149 159 168 166 150 150 152 165 173 155 114 106 131 144 172 341 13 11 29 56 67 44 40
170 162 158 155 169 175 170 164 168 173 171 155 154 162 169 159 156 164 155 150 160 167 175 174 161 157 153 151 156 153 154 160 169 154 161 175 114 341 17 20 40 49 57